Flag for Denmark Weather past 2 weeks in Skagen, Denmark

Now
55 °F

Clear.


Feels Like: 55 °F
Forecast: 60 / 64 °F
Wind: 2 mph from North

Location: Gothenburg / Save

Current Time: Sep 1, 2014 at 11:03:52 PM

Latest Report: Sep 1, 2014 at 10:20 PM


Visibility: 10 mi

Pressure: 30.18 "Hg

Humidity: 88%

Dew point: 52 °F

Location of SkagenLocation

Historic Weather in Skagen — Graph

°F

Skagen temperature yesterday

Maximum temperature yesterday: 63 °F (at 2:50 PM)
Minimum temperature yesterday: 54 °F (at 8:20 AM)
Average temperature yesterday: 57 °F

Past Weeks' High & Low Weather Summary

 TemperatureHumidityPressure
High66 °F (Aug 26, 4:20 PM)100% (Aug 23, 4:30 AM)30.18 "Hg (Aug 23, 4:30 AM)
Low41 °F (Aug 29, 5:50 AM)52% (Aug 26, 2:57 PM)29.24 "Hg (Aug 18, 9:50 AM)
Average57 °F80%29.73 "Hg
* Reported Aug 17 9:20 PM — Sep 1 9:50 PM, Skagen, Weather by CustomWeather, © 2014

Note: Actual official high and low records may vary slightly from our data, if they occured in-between our weather recording intervals... More about our weather records

Advertising

Skagen weather history for previous 24 hours

 ConditionsComfort  
Time TempWeatherWind HumidityBarometerVisibility
9:50 PM
Sep 1
55 °FClear.No wind88%30.18 "Hg10 mi
9:20 PM55 °FLight fog.No wind88%30.18 "HgN/A
8:50 PM57 °FSunny.No wind88%30.15 "Hg10 mi
8:20 PM59 °FSunny.No wind82%30.15 "Hg10 mi
7:50 PM63 °FSunny.3 mph68%30.15 "Hg10 mi
7:20 PM63 °FSunny.3 mph73%30.15 "Hg10 mi
6:50 PM64 °FPassing clouds.6 mph68%30.15 "HgN/A
6:20 PM64 °FPassing clouds.6 mph68%30.15 "HgN/A
5:50 PM64 °FScattered clouds.8 mph68%30.15 "HgN/A
5:20 PM64 °FSunny.8 mph68%30.15 "Hg10 mi
4:50 PM66 °FSunny.6 mph64%30.15 "Hg10 mi
4:20 PM64 °FSunny.7 mph68%30.15 "Hg10 mi
3:50 PM64 °FScattered clouds.6 mph68%30.15 "HgN/A
3:20 PM66 °FPartly sunny.2 mph56%30.15 "HgN/A
2:50 PM66 °FPassing clouds.3 mph60%30.15 "HgN/A
2:20 PM66 °FScattered clouds.3 mph56%30.15 "HgN/A
1:50 PM66 °FScattered clouds.2 mph60%30.18 "HgN/A
1:20 PM64 °FScattered clouds.3 mph64%30.15 "HgN/A
12:50 PM64 °FScattered clouds.6 mph64%30.15 "HgN/A
12:20 PM64 °FPassing clouds.7 mph68%30.15 "HgN/A
11:50 AM63 °FPassing clouds.7 mph68%30.15 "HgN/A
11:20 AM63 °FSunny.8 mph68%30.15 "Hg10 mi
10:50 AM61 °FPassing clouds.8 mph72%30.15 "HgN/A
10:20 AM59 °FSunny.8 mph77%30.15 "Hg10 mi
9:50 AM59 °FPassing clouds.8 mph72%30.15 "HgN/A
9:20 AM57 °FPassing clouds.7 mph77%30.15 "HgN/A
8:50 AM55 °FPassing clouds.6 mph82%30.15 "HgN/A
8:20 AM54 °FSunny.5 mph88%30.15 "Hg10 mi
7:50 AM54 °FSunny.2 mph82%30.15 "Hg10 mi
7:20 AM50 °FSunny.6 mph94%30.15 "Hg10 mi
6:50 AM46 °FClear.5 mph100%30.15 "Hg10 mi
6:20 AM46 °FClear.6 mph93%30.15 "Hg10 mi
5:50 AM48 °FClear.5 mph94%30.15 "Hg10 mi
5:20 AM50 °FClear.5 mph94%30.15 "Hg10 mi
4:50 AM52 °FClear.5 mph88%30.15 "Hg10 mi
4:20 AM52 °FClear.6 mph88%30.15 "Hg10 mi
3:50 AM52 °FClear.6 mph88%30.15 "Hg10 mi
3:20 AM52 °FClear.6 mph88%30.15 "Hg10 mi
2:50 AM52 °FClear.6 mph88%30.15 "Hg10 mi
2:20 AM50 °FClear.6 mph88%30.12 "Hg10 mi
1:50 AM50 °FClear.6 mph88%30.12 "Hg10 mi
1:20 AM50 °FPassing clouds.6 mph88%30.12 "HgN/A
12:50 AM52 °FClear.5 mph88%30.12 "Hg10 mi
12:20 AM54 °FClear.6 mph82%30.12 "Hg10 mi
11:50 PM
Aug 31
55 °FClear.5 mph77%30.12 "Hg10 mi
11:20 PM55 °FClear.6 mph77%30.12 "Hg10 mi
Weather by CustomWeather, © 2014

See weather overviewHow to use our weather pages